Location: Alpine Heights
(32.8181°N, 116.7809°W)
Time: 23:52:35
(UTC+00:00)

Cosmos 1733 - Pass Details

Date: 14 April 2021
Orbit: 503 x 522 km, 82.5° (Epoch: 15 May)

Event Time Altitude Azimuth Distance (km) Brightness Sun altitude
Rises 12:14:18 0° 350° (N) 2,612 6.9 -13.7°
Reaches altitude 10° 12:16:27 10° 348° (NNW) 1,721 6.0 -13.3°
Maximum altitude 12:20:11 69° 266° (W) 541 3.0 -12.5°
Drops below altitude 10° 12:23:54 10° 182° (S) 1,704 5.6 -11.8°
Sets 12:26:00 0° 180° (S) 2,583 6.6 -11.4°
